GFSCGP_sfc_dewp_132.txt.gz
Dewpoint
34 31 29 27 30 27 22 21 20 19 21 20 19 17 15 16 17 17 20 20 19 20 25 29 36 53 62 69 72 74 74 74 72 71 71 70 70 70 70 69 71 72 71 72
29 26 24 27 27 27 26 23 22 22 18 19 20 19 20 19 19 19 21 21 21 22 26 28 36 48 62 67 71 73 73 72 71 71 71 69 69 68 68 68 71 71 71 71
26 23 27 24 28 28 27 25 22 21 21 21 20 19 20 20 20 21 20 21 22 22 25 31 34 42 55 62 68 71 73 71 71 72 71 69 69 69 68 70 70 71 71 71
24 24 25 25 27 29 26 26 23 20 18 16 20 12 20 20 21 22 22 21 20 22 25 28 32 40 51 57 63 69 71 70 70 71 69 71 67 65 65 67 67 69 69 70
23 19 18 25 26 28 27 26 26 24 19 18 17 14 16 20 20 21 23 22 22 23 24 25 28 33 43 51 59 68 70 69 68 69 70 69 68 66 67 66 69 70 69 69
29 31 27 19 24 28 29 28 26 26 19 16 19 15 14 16 20 21 22 21 22 21 23 24 28 34 43 51 61 68 67 67 67 68 69 69 69 67 65 66 65 66 67 67
31 30 31 33 21 27 30 29 27 24 18 15 19 16 17 21 19 19 21 22 22 24 24 27 29 36 47 60 65 65 65 66 67 69 68 68 68 68 68 67 67 65 65 65
30 26 31 35 26 26 30 32 22 19 18 15 18 17 17 22 33 41 40 37 35 32 30 31 36 46 58 62 63 63 65 66 66 65 65 66 67 65 64 66 65 67 66 66
25 27 30 26 33 33 30 30 24 19 20 15 16 22 32 31 38 42 43 43 38 36 36 43 50 58 60 62 63 63 63 63 63 63 63 63 63 64 62 63 62 60 61 60
36 31 30 28 33 33 31 28 25 19 18 16 15 19 19 34 38 44 48 52 54 56 57 58 59 60 61 62 62 62 63 62 61 60 59 59 60 60 60 60 60 60 59 58
38 38 33 30 35 30 28 27 24 25 21 18 16 21 35 36 42 46 49 52 53 54 55 56 56 58 59 59 59 59 57 57 57 56 56 56 55 55 55 54 54 55 56 55
40 38 35 29 37 35 23 27 27 19 23 18 17 35 44 44 46 49 50 51 52 52 53 54 55 56 55 54 54 54 55 54 54 54 53 52 52 51 50 51 51 51 52 52
39 37 31 34 37 39 37 25 24 28 26 25 21 37 46 49 48 49 49 49 49 49 50 52 53 53 53 51 51 51 50 50 49 50 49 49 49 48 48 48 49 49 49 49
41 36 36 26 28 34 34 31 24 26 25 22 23 40 45 47 47 49 49 48 48 48 49 49 49 48 48 48 47 46 46 46 46 46 47 47 47 47 46 46 46 46 46 46
37 34 38 31 35 36 34 29 23 24 24 22 36 39 45 47 48 48 48 48 47 47 47 47 48 47 46 46 45 44 44 44 45 43 44 45 45 45 45 45 45 46 46 46
38 34 38 35 35 35 32 26 24 26 24 28 38 44 48 48 48 47 47 47 46 45 45 45 45 44 44 44 43 43 42 41 42 41 41 43 43 44 45 45 45 46 46 47
36 36 38 37 34 36 34 30 30 28 27 38 41 45 47 47 47 48 47 45 44 44 44 43 43 42 42 42 42 41 41 41 40 39 39 40 41 42 43 44 44 46 47 48
36 35 39 35 36 33 35 33 35 28 33 45 46 46 47 45 46 47 47 44 43 42 42 41 40 41 41 40 40 39 38 38 38 38 39 39 39 41 42 44 45 47 46 47
39 38 37 36 37 32 34 35 32 33 36 45 47 44 43 42 41 42 43 42 41 40 39 38 39 40 39 38 39 38 38 39 39 39 40 40 40 42 43 43 44 44 44 44
40 40 38 37 34 32 37 41 38 36 37 45 46 44 45 45 38 37 38 37 37 37 36 37 37 37 38 38 39 39 39 39 39 40 41 41 42 42 42 43 43 43 43 42
37 39 36 35 35 38 42 42 42 32 38 48 45 46 47 45 42 37 35 35 35 35 35 35 35 36 38 39 39 39 40 39 40 41 41 42 42 42 42 42 42 42 42 41
37 38 37 38 35 35 45 41 35 47 48 47 47 44 42 39 36 34 32 32 32 31 33 34 34 36 37 38 38 39 40 40 41 41 41 41 42 40 40 42 42 41 40 38
38 42 40 39 38 45 47 48 49 49 47 45 43 42 41 37 33 31 29 29 29 29 31 33 34 36 37 37 37 38 39 40 40 40 40 41 41 40 40 40 39 37 36 35
42 42 40 40 40 45 47 48 48 47 45 42 41 40 38 34 31 29 29 28 28 30 32 33 33 34 36 36 36 37 38 39 39 40 39 39 39 39 38 36 36 36 35 35
39 40 39 38 41 42 45 46 45 44 42 40 39 38 36 34 30 29 30 29 29 30 32 32 33 33 36 36 36 36 37 39 38 38 38 38 36 37 36 37 35 36 35 34
38 40 40 37 41 41 43 45 44 42 41 41 41 41 35 32 31 30 30 31 30 31 32 33 34 35 35 34 34 34 35 38 37 37 37 35 34 35 37 36 35 36 35 35

GFSCGP_sfc_dewp_138.txt.gz
Dewpoint
22 19 27 31 31 28 22 18 17 17 20 18 21 19 18 20 21 19 22 24 27 28 27 30 34 40 64 73 74 74 73 75 75 74 75 73 72 74 75 75 75 75 75 74
25 21 19 24 26 28 26 22 20 19 20 22 23 21 21 21 22 21 25 26 27 29 31 31 40 46 67 73 73 74 73 75 74 73 75 73 72 73 73 73 73 74 73 74
21 22 21 19 19 21 24 23 23 19 20 22 22 22 22 21 22 24 23 27 28 30 32 35 36 54 69 70 66 71 71 74 73 73 74 74 74 74 72 73 74 74 73 72
27 20 16 17 17 18 19 22 23 21 21 18 22 17 25 23 26 26 25 26 26 30 33 33 39 56 65 69 67 65 70 72 73 73 73 73 71 69 70 71 73 73 72 72
33 28 26 22 15 16 17 20 21 22 21 23 20 17 19 25 24 25 27 26 27 28 30 28 40 54 58 65 69 70 73 72 73 72 73 71 71 71 71 72 72 74 73 71
30 29 26 30 24 20 16 16 20 22 22 21 22 19 19 19 24 26 27 25 26 26 29 29 41 49 55 60 66 72 73 72 73 72 71 72 72 71 69 69 70 70 71 71
32 30 25 31 28 28 26 18 16 20 19 19 23 19 21 25 24 25 27 26 27 29 30 31 34 41 48 55 66 71 70 70 70 70 72 72 73 71 71 70 68 69 68 69
32 25 26 29 27 24 25 21 16 22 22 16 21 19 18 24 26 26 27 28 29 31 29 30 30 39 40 51 69 69 69 68 69 70 71 72 72 70 69 71 69 68 67 67
32 31 37 31 27 22 16 21 19 21 23 17 19 19 19 22 28 29 26 29 29 31 30 33 32 38 57 67 67 67 67 68 69 69 69 69 69 69 68 69 68 65 66 64
37 32 36 36 37 28 22 19 24 26 21 17 17 19 17 23 28 31 44 35 33 31 30 34 51 64 65 66 66 67 67 67 66 66 65 64 65 66 65 64 64 64 64 63
35 35 35 35 33 33 23 21 23 27 27 25 17 18 25 27 31 41 52 54 56 55 58 61 61 62 63 64 64 65 65 64 65 63 62 61 61 61 61 60 60 60 60 59
36 36 33 31 33 33 22 28 31 23 26 28 24 29 48 34 42 52 52 54 56 57 58 59 60 60 61 61 62 63 61 59 58 57 57 57 57 57 56 56 56 56 56 56
37 35 32 32 35 35 33 29 31 30 33 29 26 41 50 51 51 52 53 55 57 57 57 58 58 59 59 58 57 56 55 54 54 54 54 55 55 54 54 54 54 53 53 52
40 35 33 31 34 36 32 29 25 28 27 29 31 43 47 48 48 50 53 55 55 56 55 55 55 54 53 53 52 52 52 52 52 51 52 53 53 53 53 53 53 53 51 51
37 33 31 32 37 36 32 35 30 26 25 34 36 42 46 47 48 50 52 53 53 52 51 51 51 49 49 49 50 49 49 49 49 48 49 51 51 51 51 51 52 52 52 51
35 32 34 34 36 34 32 31 30 28 38 39 43 45 48 49 49 49 49 49 48 48 47 47 47 46 46 47 46 46 46 46 47 46 45 47 47 48 50 51 51 51 51 50
33 34 34 31 34 32 31 28 33 31 38 37 39 45 47 47 48 48 48 47 46 46 45 45 45 46 47 47 47 44 43 43 43 42 42 44 46 47 48 48 48 49 49 49
35 34 37 33 30 29 25 28 35 39 42 44 46 46 47 48 48 49 49 47 45 44 43 43 43 45 45 43 43 43 42 43 43 43 43 43 44 45 46 47 47 48 47 47
39 36 37 35 35 27 28 42 42 40 43 45 44 45 45 45 45 46 45 44 44 43 42 41 43 44 44 43 44 44 43 43 43 43 44 43 43 45 45 46 47 46 44 44
41 39 38 38 32 27 41 43 44 42 37 45 44 44 42 41 38 41 43 41 41 41 41 42 42 43 45 45 45 44 43 43 43 43 43 44 44 44 44 44 44 44 44 43
38 36 35 34 35 37 43 42 42 34 37 45 44 44 43 39 41 40 39 38 40 41 41 42 42 43 44 44 44 44 44 43 43 43 44 44 45 45 44 43 43 42 42 42
37 37 37 37 37 35 46 42 37 44 46 46 42 40 39 39 38 37 36 38 39 39 38 39 40 41 43 44 43 43 44 43 43 43 43 44 44 42 41 43 42 40 41 40
36 40 38 39 39 46 51 49 48 47 44 42 40 40 38 36 35 33 33 35 36 36 36 36 37 39 41 42 43 41 42 42 42 42 43 43 43 40 40 40 37 36 37 37
37 40 40 40 40 48 50 50 49 46 43 42 40 40 39 35 34 34 35 36 36 36 36 37 38 37 37 40 40 42 42 41 41 42 41 42 41 39 38 37 35 33 32 33
35 37 39 39 41 45 47 46 45 43 42 41 40 39 38 37 37 35 35 34 34 36 37 37 38 37 37 38 39 40 40 40 39 40 39 39 41 39 37 34 34 32 31 31
37 37 37 36 42 42 41 42 41 38 36 34 36 38 38 38 38 40 37 33 35 37 38 38 38 37 35 34 35 39 39 40 39 39 38 38 40 38 37 35 34 35 34 33

GFSCGP_sfc_dewp_141.txt.gz
Dewpoint
22 21 27 26 26 29 28 24 19 22 22 23 21 19 20 21 21 21 19 22 24 24 25 27 29 33 65 64 61 62 64 64 68 71 71 71 71 72 73 74 73 73 72 71
31 23 24 22 24 30 30 27 23 20 19 21 21 19 19 21 20 20 23 20 22 23 26 30 28 32 71 71 69 66 69 70 71 72 72 71 71 70 71 72 72 72 71 72
28 33 22 21 18 21 28 27 27 24 22 18 20 19 20 20 21 21 22 24 22 26 24 27 30 36 72 72 71 71 72 72 72 73 72 71 71 71 69 69 71 71 71 71
24 25 26 27 18 17 20 24 27 26 24 21 19 17 22 21 20 21 20 24 27 26 26 27 34 44 69 67 68 67 72 72 71 73 71 69 69 68 68 70 71 70 70 69
25 32 34 29 25 17 17 19 20 24 23 22 21 19 19 22 19 21 24 24 24 29 28 26 34 60 67 68 67 66 69 70 71 72 71 70 70 69 70 70 70 69 69 68
33 28 31 31 33 27 22 18 18 19 21 20 21 20 19 22 20 23 25 25 25 26 30 29 35 62 67 66 65 64 66 70 70 71 71 70 70 68 68 69 68 68 67 67
32 30 31 33 34 32 29 23 14 18 18 18 21 21 23 23 24 23 24 25 25 26 26 31 50 56 66 66 66 68 70 70 69 70 70 69 68 67 67 68 68 67 66 67
31 27 30 32 33 29 30 27 15 24 26 19 21 21 23 25 23 25 25 26 24 29 26 36 46 51 63 69 70 70 69 69 68 69 69 68 68 68 68 67 67 66 66 65
33 33 37 33 30 30 34 30 25 25 28 23 20 22 25 25 29 41 31 26 23 28 28 32 41 46 66 68 68 68 68 68 68 68 67 67 67 66 64 63 63 63 63 62
34 31 37 36 37 35 35 31 21 20 23 22 18 18 21 22 40 52 49 25 24 26 32 50 51 66 67 67 67 67 67 66 65 64 64 63 62 62 60 59 59 58 57 57
33 34 33 36 34 29 32 29 24 22 31 23 17 16 21 26 50 53 55 49 41 56 62 63 64 65 66 66 65 65 64 62 61 60 58 56 56 56 55 55 55 53 52 52
37 32 28 29 33 33 34 35 26 26 27 29 30 30 48 48 51 55 55 57 59 60 60 61 62 62 63 63 61 59 57 56 55 55 54 54 54 52 52 51 50 50 49 49
37 33 27 31 35 35 35 32 30 28 34 31 29 37 49 51 52 55 55 57 58 58 58 59 60 61 59 57 55 54 53 53 52 52 52 51 51 51 50 49 48 48 47 47
39 34 31 26 30 34 35 31 26 26 32 33 36 40 45 49 51 54 55 56 57 58 58 56 55 54 53 52 51 51 51 51 51 51 51 51 51 50 50 50 49 50 50 49
36 32 32 31 31 31 35 34 29 27 29 33 36 38 45 48 51 53 54 54 53 53 52 51 51 50 49 49 49 48 48 48 48 48 48 48 48 49 49 50 50 49 49 48
34 31 33 31 32 33 33 36 30 31 32 36 39 42 48 50 53 52 51 50 49 48 47 46 45 44 43 43 44 44 45 45 45 46 46 47 47 47 47 47 48 47 47 46
32 32 33 32 34 35 34 31 31 35 39 40 37 44 49 48 49 49 48 47 46 44 43 43 43 43 42 41 40 41 41 42 42 43 45 46 46 46 46 46 45 46 45 44
35 32 35 34 35 28 36 31 35 40 43 44 45 47 47 48 48 48 47 44 43 42 41 40 39 39 40 41 41 42 42 43 43 43 44 44 44 45 45 44 44 43 43 43
39 34 33 31 28 36 39 42 41 40 43 46 46 45 45 45 44 44 44 41 40 39 40 40 41 42 42 42 43 43 43 43 43 43 43 44 44 43 43 42 41 42 42 42
40 38 35 35 28 29 37 45 44 42 37 45 45 44 42 42 38 41 41 39 39 40 41 42 43 43 43 44 43 43 43 43 43 43 43 44 43 42 41 41 41 41 41 40
35 35 33 34 34 38 40 43 42 34 38 45 44 44 42 40 41 42 40 40 40 40 41 41 42 43 43 43 43 42 42 42 43 43 43 43 42 41 41 40 39 39 39 37
33 33 33 36 33 33 46 45 41 43 46 42 42 41 40 39 39 39 40 40 39 39 40 41 41 41 42 42 42 42 42 42 42 43 42 40 40 39 37 36 35 35 36 34
34 36 35 37 37 46 46 44 45 43 41 41 40 39 39 39 39 39 40 39 37 38 38 39 40 40 41 41 41 40 41 41 41 41 40 38 37 37 35 33 32 32 33 33
36 38 37 37 42 45 43 43 42 40 39 39 38 38 37 37 38 36 36 37 35 36 35 37 38 39 39 41 41 40 40 41 40 39 40 39 36 34 34 34 31 30 31 31
35 35 35 39 41 43 42 41 40 40 39 38 37 37 38 37 36 35 35 35 35 35 35 36 36 37 39 39 40 39 39 40 39 38 38 39 37 34 33 33 32 30 31 31
36 35 34 35 41 41 40 41 40 39 39 38 38 39 41 40 37 37 38 37 35 35 35 34 34 34 38 39 39 39 39 40 39 38 38 38 36 34 34 34 33 34 33 32

GFSCGP_sfc_dewp_144.txt.gz
Dewpoint
31 20 19 21 24 21 24 28 26 23 24 22 21 22 23 23 23 22 21 21 21 22 22 27 65 65 66 66 65 65 66 64 67 69 69 70 70 71 72 73 71 70 71 71
30 28 26 21 26 22 21 24 27 28 25 23 22 21 23 23 22 22 23 22 22 23 23 27 54 62 63 63 62 63 64 64 66 68 69 70 70 71 71 72 72 72 71 71
28 25 27 29 25 25 24 25 28 29 28 27 21 22 24 23 22 22 23 23 23 23 23 28 29 61 60 62 63 63 64 64 64 65 67 70 71 71 70 70 71 71 71 71
30 28 25 26 27 23 19 22 26 29 28 25 23 16 21 21 20 20 19 22 22 23 23 25 29 64 64 62 62 63 64 65 66 66 67 68 68 68 69 68 70 70 70 70
28 25 24 27 27 30 28 20 25 27 24 25 24 21 18 22 19 20 20 21 23 24 26 25 31 64 69 68 65 64 67 69 67 68 69 70 69 68 69 70 69 68 68 68
36 32 30 30 32 36 31 29 19 19 18 19 22 22 23 22 20 20 21 22 24 26 27 26 40 67 69 70 69 70 70 70 70 70 70 69 69 68 68 68 68 67 66 67
32 30 28 30 31 34 34 30 18 16 15 18 21 21 22 26 24 23 22 24 26 25 29 31 63 66 66 65 64 67 69 69 68 67 68 69 68 68 67 67 68 66 66 65
32 28 32 30 30 29 31 29 21 22 21 17 21 20 22 24 27 25 22 24 26 26 27 37 64 65 64 61 62 67 68 68 67 67 67 67 67 67 67 67 66 65 64 62
31 31 35 36 32 30 32 29 27 27 29 22 20 24 25 26 28 26 24 27 26 26 30 49 62 65 64 65 67 67 67 67 66 67 65 63 62 63 63 63 62 61 60 59
33 28 33 36 39 34 34 33 28 28 23 21 20 19 22 24 41 50 40 27 26 27 39 51 66 66 67 68 68 67 65 64 63 62 61 59 58 57 56 55 54 52 51 51
34 34 31 36 33 32 35 32 33 28 29 22 18 20 35 43 46 50 47 40 38 50 61 64 65 67 66 66 65 64 62 60 57 57 56 54 54 54 53 53 51 49 48 48
36 32 27 28 33 35 35 33 29 25 23 29 23 21 46 49 53 52 53 56 59 61 62 63 64 64 63 62 60 58 57 55 54 53 52 51 51 49 48 48 48 48 47 48
37 33 25 29 33 35 34 35 32 29 33 30 27 33 49 53 54 53 56 58 59 60 61 61 61 59 57 56 55 55 54 53 52 51 51 48 47 47 47 48 48 49 49 49
42 34 28 24 29 34 33 35 32 26 29 33 36 39 45 51 53 53 55 57 58 59 58 57 55 54 53 53 53 52 51 50 49 49 49 49 49 49 49 49 48 48 48 48
38 32 32 30 31 30 31 33 32 26 34 34 37 39 44 48 53 54 56 55 54 54 53 52 51 51 51 50 50 49 48 49 47 46 48 48 48 48 47 47 46 46 47 47
34 31 35 31 31 31 31 34 35 30 35 36 38 39 48 50 53 53 52 51 50 50 49 48 48 47 47 48 48 46 46 45 46 46 46 46 46 46 46 45 44 44 44 45
32 32 32 31 33 31 30 33 34 33 35 36 36 42 48 49 51 50 49 46 44 43 43 44 44 45 46 45 43 43 44 45 45 45 46 45 45 44 44 43 43 43 42 42
32 32 34 33 35 26 35 35 36 39 42 43 42 45 46 50 48 47 46 43 41 40 39 39 40 40 41 42 43 43 44 44 44 44 44 44 43 42 42 41 42 42 42 43
37 35 33 32 33 35 35 40 39 38 42 46 44 44 45 44 42 42 41 40 40 40 40 43 42 42 42 43 43 43 43 43 43 43 43 42 42 41 41 41 40 41 40 40
39 38 34 35 31 30 38 44 43 41 37 45 43 43 44 42 36 39 41 41 42 42 43 43 43 43 43 43 43 43 43 43 42 42 42 42 41 41 40 39 40 39 38 38
34 35 33 34 33 36 41 43 43 32 38 45 45 45 44 39 40 41 40 40 41 42 42 43 43 43 43 43 43 42 42 41 42 41 41 39 38 37 37 35 36 36 35 35
31 31 33 35 32 33 46 44 41 43 44 44 42 42 41 41 40 40 40 40 41 41 42 42 42 43 43 42 41 41 41 41 40 39 38 37 35 34 33 33 33 33 33 32
32 33 31 34 36 42 45 44 44 43 42 42 42 42 41 40 40 40 40 40 41 40 40 41 41 41 41 41 41 40 41 41 39 37 36 35 35 32 31 31 30 31 31 30
34 36 35 37 39 40 41 41 41 40 40 41 42 41 40 39 39 38 37 39 39 40 40 40 40 40 39 40 40 41 41 41 39 37 35 34 33 33 33 31 29 28 28 27
33 34 34 37 40 39 39 37 37 38 39 39 41 41 39 38 37 36 37 36 37 38 38 39 39 39 39 39 39 40 39 39 39 38 36 34 33 32 31 31 30 29 30 30
34 33 33 32 39 38 38 39 38 38 39 39 39 40 41 39 37 36 36 36 35 35 37 38 38 38 39 39 39 39 39 39 38 38 37 34 33 33 32 30 29 33 32 32

GFSCGP_sfc_dewp_147.txt.gz
Dewpoint
28 23 21 21 24 28 27 25 25 28 28 24 21 20 22 24 24 23 23 23 21 22 54 66 66 66 65 65 64 65 64 64 66 68 69 67 67 68 69 69 70 69 69 70
31 26 22 22 22 22 23 21 21 23 28 28 24 23 23 24 24 23 24 24 23 23 50 65 66 65 65 64 64 64 64 64 65 66 68 69 68 70 70 71 72 70 70 70
30 27 27 25 22 21 22 23 22 22 28 30 28 25 24 25 24 24 24 24 24 24 31 63 64 66 65 65 65 65 65 64 64 64 68 68 69 69 69 69 70 71 71 71
29 30 29 25 25 23 22 27 24 26 28 27 27 21 22 24 23 24 23 23 24 23 26 58 63 64 64 65 65 64 64 63 63 65 66 66 66 66 67 68 69 70 71 71
31 28 30 31 29 26 23 26 22 23 24 23 24 24 23 23 23 22 23 23 24 24 24 39 59 62 63 64 63 64 63 63 64 65 66 66 66 67 68 68 69 69 69 69
36 35 29 27 27 28 31 30 27 20 23 26 23 24 22 21 21 23 23 22 23 23 24 26 56 59 61 62 62 63 62 63 64 65 67 65 66 67 67 67 67 67 67 67
33 35 32 31 29 35 36 28 22 21 22 23 21 23 23 25 24 22 22 23 24 25 26 36 61 63 62 62 61 62 63 63 66 66 66 66 63 65 66 65 67 65 65 64
30 28 34 29 30 31 32 28 23 18 21 20 21 20 22 25 26 27 26 24 24 25 26 36 64 66 66 65 64 63 65 67 67 67 67 66 66 68 66 65 66 64 62 61
28 30 37 38 31 30 32 29 30 26 27 19 20 21 25 25 25 28 26 24 24 24 28 46 63 65 66 66 67 68 67 66 65 64 63 63 65 66 65 64 63 61 59 53
34 28 31 35 37 34 33 31 27 32 22 18 20 17 21 25 25 27 36 24 26 26 33 58 64 63 62 65 66 65 64 62 61 60 59 59 58 58 57 56 55 53 52 49
37 34 29 33 33 32 32 30 32 33 30 20 16 19 34 38 42 43 46 32 26 36 57 63 63 64 66 65 64 62 60 58 57 56 56 53 52 52 52 52 51 48 48 49
36 33 25 27 30 32 33 32 30 26 25 30 22 20 44 47 47 48 50 43 47 57 63 64 64 64 63 61 59 57 56 54 53 52 51 50 49 47 47 48 48 48 48 47
38 33 24 28 33 36 34 33 31 30 34 30 25 32 49 51 52 53 53 55 59 62 62 62 62 60 57 56 55 55 54 53 52 50 49 48 48 48 48 48 48 48 47 45
42 34 31 26 30 34 32 34 31 28 30 31 34 38 44 52 50 55 55 58 59 60 60 58 56 56 55 55 53 52 52 51 50 49 49 48 47 47 47 47 47 47 46 45
38 32 33 30 30 30 29 30 32 27 29 32 36 39 43 48 53 55 56 57 57 55 55 53 53 53 52 51 51 50 50 48 49 48 47 46 46 45 44 45 45 46 47 46
34 30 34 32 32 30 29 30 31 32 33 37 38 38 48 50 53 53 53 53 52 51 51 51 51 51 51 49 47 47 47 47 47 46 45 45 44 43 43 42 42 42 44 44
32 31 30 29 32 31 32 32 33 33 35 38 34 40 47 48 51 51 50 49 48 48 48 49 48 47 47 46 46 46 47 47 45 44 44 43 43 43 43 42 42 42 42 44
32 32 33 31 33 26 33 35 36 33 40 42 42 44 47 47 48 48 47 46 45 45 44 44 44 43 45 45 46 45 45 44 44 43 42 41 41 41 42 41 41 40 41 42
37 34 32 30 32 33 35 38 37 35 40 44 44 46 44 44 43 43 44 43 43 42 45 45 46 46 46 45 45 44 43 43 42 41 41 41 41 40 40 40 39 38 39 40
38 38 35 34 32 29 37 42 43 40 36 44 44 42 42 42 37 40 44 44 44 44 45 45 45 45 44 43 43 42 42 41 41 41 40 39 38 38 37 37 36 36 36 37
32 33 33 34 32 36 44 44 45 32 34 43 42 42 43 41 41 45 46 44 45 44 44 44 43 43 42 42 42 41 41 40 39 38 37 36 35 35 34 34 34 34 34 33
31 29 30 32 33 32 41 44 40 42 44 42 42 41 41 42 42 43 43 43 42 42 42 42 42 41 42 42 41 40 39 38 37 36 34 33 33 33 32 32 32 32 32 31
30 32 28 33 33 40 44 44 44 43 41 41 41 42 42 41 41 41 41 41 41 41 41 41 41 40 41 41 40 38 38 37 36 35 34 33 32 31 30 30 29 28 28 28
35 36 34 36 36 37 40 42 42 42 42 43 43 42 42 41 41 41 40 40 40 40 40 40 40 40 40 41 40 38 38 36 34 33 33 32 31 29 28 28 28 27 27 26
33 34 33 36 37 37 38 40 41 41 42 41 42 42 42 40 39 39 39 39 39 39 40 39 39 39 39 39 40 40 39 37 34 33 32 31 31 30 30 30 29 28 30 30
33 32 33 30 37 36 38 40 40 40 40 40 40 39 40 39 38 37 37 38 38 38 39 39 39 38 39 39 39 39 39 37 35 34 33 33 32 31 29 28 28 32 31 32